Stations météo

réclame
Mon MeteoGroup
Beauvechain, Belgique (6458): Température de l'air & dewpoint: 13.03.2019 03:00:00 - 19.03.2019 03:00:00 (CET)Beauvechain, Belgique (6458): Vitesse du vent & gusts: 13.03.2019 03:00:00 - 19.03.2019 03:00:00 (CET)Beauvechain, Belgique (6458): Direction du vent: 13.03.2019 03:00:00 - 19.03.2019 03:00:00 (CET)Beauvechain, Belgique (6458): reduced air pressure: 13.03.2019 03:00:00 - 19.03.2019 03:00:00 (CET)Beauvechain, Belgique (6458): visibility: 13.03.2019 03:00:00 - 19.03.2019 03:00:00 (CET)
Date & Time tt [°C] td [°C] ff [km/h] ff [knt] fx [km/h] fx [knt] dd ppp [hPa] vv [km]
19.03.2019 03:00:00 2,0 -0,9 4 2 4 2 N 1026,4 20
19.03.2019 02:00:00 2,0 -1,0 4 2 4 2 N 1026,2 20
19.03.2019 01:00:00 3,3 -0,6 4 2 - - N 1026,0 20
19.03.2019 00:00:00 2,7 -1,4 4 2 7 4 N 1026,0 20
18.03.2019 23:00:00 3,1 -1,3 4 2 7 4 N 1025,7 20
18.03.2019 22:00:00 4,0 -1,3 4 2 - - N 1025,2 20
18.03.2019 21:00:00 4,9 -1,4 4 2 4 2 N 1024,4 20
18.03.2019 20:00:00 5,3 -0,8 4 2 11 6 N 1023,5 20
18.03.2019 19:00:00 5,9 -1,0 4 2 - - N 1022,8 20
18.03.2019 18:00:00 7,1 0,3 7 4 14 8 WNW 1022,0 20
18.03.2019 17:00:00 7,2 2,5 11 6 25 14 W 1021,5 20
18.03.2019 16:00:00 7,0 1,9 11 6 - - WSW 1021,1 20
18.03.2019 15:00:00 7,3 2,1 11 6 18 10 SW 1020,7 20
18.03.2019 14:00:00 6,9 3,7 7 4 43 23 WSW 1020,7 20
18.03.2019 13:00:00 8,3 0,9 22 12 - - W 1020,2 20
18.03.2019 12:00:00 7,9 1,3 22 12 32 18 W 1020,1 20
18.03.2019 11:00:00 7,2 2,5 18 10 25 14 W 1019,8 20
18.03.2019 10:00:00 6,0 3,4 14 8 - - WSW 1019,2 20
18.03.2019 09:00:00 4,3 2,8 14 8 22 12 WSW 1018,7 15
18.03.2019 08:00:00 3,0 2,0 11 6 18 10 SW 1018,0 15
18.03.2019 07:00:00 2,5 1,3 14 8 - - WSW 1017,2 15
18.03.2019 06:00:00 2,5 1,1 14 8 22 12 WSW 1016,2 20
18.03.2019 05:00:00 2,0 0,5 14 8 25 14 SW 1015,5 20
18.03.2019 04:00:00 1,8 0,3 14 8 - - SW 1015,0 20
18.03.2019 03:00:00 1,6 0,1 18 10 25 14 SW 1014,7 20
18.03.2019 02:00:00 2,0 0,6 14 8 22 12 SW 1014,2 20
18.03.2019 01:00:00 2,2 0,6 14 8 - - SW 1013,7 20
18.03.2019 00:00:00 2,5 0,8 18 10 25 14 SW 1013,2 20
17.03.2019 23:00:00 2,2 0,7 14 8 22 12 SW 1013,0 20
17.03.2019 22:00:00 2,5 0,7 11 6 - - SW 1012,5 20
17.03.2019 21:00:00 2,8 0,2 18 10 36 19 SSW 1011,7 20
17.03.2019 20:00:00 3,6 0,1 25 14 61 33 SW 1011,0 20
17.03.2019 19:00:00 2,7 0,0 14 8 - - SW 1010,6 20
17.03.2019 18:00:00 3,5 1,1 14 8 54 29 WNW 1010,3 8
17.03.2019 17:00:00 5,0 -0,3 32 18 54 29 WSW 1008,2 5
17.03.2019 16:00:00 6,1 1,8 16 9 - - W 1007,2 10
17.03.2019 15:00:00 7,3 0,7 18 10 47 25 W 1006,6 20
17.03.2019 14:00:00 7,9 1,0 22 12 47 25 W 1005,7 20
17.03.2019 13:00:00 8,5 2,1 29 16 - - W 1005,2 20
17.03.2019 12:00:00 8,5 1,8 29 16 54 29 WSW 1004,7 20
17.03.2019 11:00:00 8,0 2,1 25 14 47 25 W 1004,1 20
17.03.2019 10:00:00 6,9 2,7 25 14 - - W 1003,5 20
17.03.2019 09:00:00 6,9 3,8 29 16 43 23 WSW 1002,5 20
17.03.2019 08:00:00 6,6 4,4 22 12 32 18 WSW 1001,6 20
17.03.2019 07:00:00 6,4 4,2 26 14 - - WSW 1000,6 10
17.03.2019 06:00:00 7,2 5,6 34 18 50 27 SW 999,5 5
17.03.2019 05:00:00 7,5 5,0 36 19 50 27 SSW 999,1 11
17.03.2019 04:00:00 8,0 4,2 34 18 - - SSW 999,4 10
17.03.2019 03:00:00 9,1 2,8 32 18 61 33 SSW 999,9 20
17.03.2019 02:00:00 9,5 3,4 40 21 58 31 SW 1000,8 20
17.03.2019 01:00:00 10,3 3,4 40 21 - - SW 1001,3 20
17.03.2019 00:00:00 10,6 5,2 36 19 54 29 SW 1002,0 20
16.03.2019 23:00:00 10,6 5,4 40 21 54 29 SSW 1002,6 20
16.03.2019 22:00:00 10,8 5,4 36 19 - - SSW 1002,8 20
16.03.2019 21:00:00 10,6 5,4 32 18 43 23 SSW 1003,6 20
16.03.2019 20:00:00 10,5 5,2 29 16 40 21 SSW 1004,2 20
16.03.2019 19:00:00 10,8 5,0 25 14 - - SW 1004,7 20
16.03.2019 18:00:00 11,0 5,3 29 16 54 29 SW 1005,5 20
16.03.2019 17:00:00 11,0 5,0 36 19 61 33 SW 1006,2 20
16.03.2019 16:00:00 10,8 4,6 40 21 - - SW 1007,1 20
16.03.2019 15:00:00 10,7 5,2 36 19 61 33 SW 1007,7 20
16.03.2019 14:00:00 10,5 5,3 40 21 68 37 WSW 1008,5 20
16.03.2019 13:00:00 10,3 4,9 40 21 - - WSW 1009,2 20
16.03.2019 12:00:00 10,0 5,8 36 19 61 33 SW 1009,7 20
16.03.2019 11:00:00 9,9 6,3 36 19 61 33 WSW 1010,0 20
16.03.2019 10:00:00 9,8 6,6 36 19 - - WSW 1010,5 20
16.03.2019 09:00:00 9,8 7,2 32 18 54 29 WSW 1010,8 20
16.03.2019 08:00:00 9,6 7,0 32 18 54 29 WSW 1011,0 20
16.03.2019 07:00:00 9,5 7,4 36 19 - - WSW 1011,0 13
16.03.2019 06:00:00 9,3 8,2 32 18 54 29 WSW 1010,7 7
16.03.2019 05:00:00 9,6 8,4 36 19 54 29 WSW 1010,7 18
16.03.2019 04:00:00 9,5 8,6 29 16 - - WSW 1010,8 4,9
16.03.2019 03:00:00 8,9 8,4 7 4 14 8 WSW 1011,7 3,7
16.03.2019 02:00:00 8,1 7,6 11 6 25 14 W 1012,3 1,6
16.03.2019 01:00:00 8,3 7,7 14 8 - - WNW 1012,3 4,2
16.03.2019 00:00:00 10,0 8,9 26 14 43 23 WSW 1011,5 3,4
15.03.2019 23:00:00 10,3 9,0 25 14 43 23 WSW 1011,1 16
15.03.2019 22:00:00 10,5 9,0 25 14 - - WSW 1010,6 9
15.03.2019 21:00:00 10,6 9,1 29 16 58 31 WSW 1009,8 15
15.03.2019 20:00:00 10,7 9,2 36 19 54 29 W 1009,2 10
15.03.2019 19:00:00 10,6 9,3 32 18 - - WSW 1008,3 4,0
15.03.2019 18:00:00 10,6 9,3 34 18 58 31 WSW 1008,0 3,0
15.03.2019 17:00:00 10,5 9,2 36 19 58 31 WSW 1007,8 2,0
15.03.2019 16:00:00 11,0 9,1 36 19 - - WSW 1008,1 3,7
15.03.2019 15:00:00 11,4 9,0 32 18 54 29 WSW 1008,0 10
15.03.2019 14:00:00 11,4 8,8 36 19 54 29 WSW 1007,7 15
15.03.2019 13:00:00 11,2 8,7 32 18 - - WSW 1007,7 15
15.03.2019 12:00:00 10,9 8,9 29 16 50 27 WSW 1007,5 15
15.03.2019 11:00:00 10,4 9,4 32 18 54 29 WSW 1007,3 2,0
15.03.2019 10:00:00 10,1 9,2 32 18 - - WSW 1006,3 2,0
15.03.2019 09:00:00 10,1 8,9 29 16 43 23 WSW 1005,8 6
15.03.2019 08:00:00 9,5 8,6 29 16 40 21 WSW 1005,6 3,5
15.03.2019 07:00:00 8,1 7,4 25 14 - - SW 1005,6 4,2
15.03.2019 06:00:00 6,9 6,0 22 12 29 16 SSW 1006,2 3,8
15.03.2019 05:00:00 7,0 5,1 14 8 36 19 SW 1007,2 14
15.03.2019 04:00:00 7,8 4,8 22 12 - - WSW 1008,0 19
15.03.2019 03:00:00 6,9 3,6 18 10 25 14 SW 1008,8 20
15.03.2019 02:00:00 6,5 2,7 18 10 25 14 SW 1009,6 20
15.03.2019 01:00:00 6,9 2,4 14 8 - - WSW 1009,3 20
15.03.2019 00:00:00 7,1 2,5 18 10 25 14 WSW 1009,2 20
14.03.2019 23:00:00 7,9 2,6 14 8 25 14 WSW 1008,7 20
14.03.2019 22:00:00 8,0 2,4 18 10 - - W 1008,0 20
14.03.2019 21:00:00 8,5 1,8 18 10 32 18 W 1007,2 20
14.03.2019 20:00:00 8,8 1,8 22 12 43 23 WNW 1006,1 20
14.03.2019 19:00:00 9,7 2,0 25 14 - - WNW 1004,7 20
14.03.2019 18:00:00 11,0 3,4 32 18 54 29 WNW 1003,0 20
14.03.2019 17:00:00 11,2 3,7 35 19 61 33 WNW 1001,7 10
14.03.2019 16:00:00 10,8 6,6 32 18 - - W 1000,7 20
14.03.2019 15:00:00 10,6 6,7 35 19 54 29 W 999,8 10
14.03.2019 14:00:00 8,8 7,8 32 18 54 29 W 999,8 4,0
14.03.2019 13:00:00 8,1 7,0 32 18 - - WSW 1000,2 2,0
14.03.2019 12:00:00 7,4 6,0 40 21 54 29 SW 1000,7 4,0
14.03.2019 11:00:00 6,5 5,1 36 19 54 29 SW 1002,1 4,0
14.03.2019 10:00:00 6,1 4,5 32 18 - - SW 1004,1 4,0
14.03.2019 09:00:00 6,0 4,5 32 18 47 25 SW 1005,5 5
14.03.2019 08:00:00 5,8 4,4 29 16 47 25 SW 1006,8 6
14.03.2019 07:00:00 5,6 4,0 29 16 - - SW 1008,1 19
14.03.2019 06:00:00 6,0 3,7 29 16 43 23 WSW 1009,5 10
14.03.2019 05:00:00 5,9 2,9 25 14 36 19 SW 1010,7 18
14.03.2019 04:00:00 5,9 2,2 22 12 - - SW 1011,7 20
14.03.2019 03:00:00 6,4 1,3 22 12 32 18 WSW 1012,7 20
14.03.2019 02:00:00 7,0 1,6 18 10 32 18 WSW 1012,8 20
14.03.2019 01:00:00 7,0 2,3 22 12 - - WSW 1012,7 20
14.03.2019 00:00:00 7,1 2,2 18 10 36 19 W 1012,5 20
13.03.2019 23:00:00 7,3 2,4 25 14 43 23 W 1012,2 20
13.03.2019 22:00:00 7,1 2,4 22 12 - - W 1011,7 20
13.03.2019 21:00:00 7,9 2,4 29 16 40 21 W 1010,8 20
13.03.2019 20:00:00 7,9 2,4 22 12 43 23 W 1010,2 20
13.03.2019 19:00:00 7,4 3,3 25 14 - - W 1009,0 20
13.03.2019 18:00:00 6,1 2,7 36 19 61 33 W 1007,8 4,0
13.03.2019 17:00:00 7,6 4,6 32 18 68 37 W 1006,7 15
13.03.2019 16:00:00 8,4 3,0 43 23 - - W 1006,2 12
13.03.2019 15:00:00 8,8 3,9 32 18 54 29 WSW 1005,8 12
13.03.2019 14:00:00 7,7 4,6 29 16 50 27 WSW 1006,2 10
13.03.2019 13:00:00 6,4 4,4 32 18 - - SW 1006,3 5
13.03.2019 12:00:00 6,2 4,0 32 18 58 31 SW 1006,3 10
13.03.2019 11:00:00 5,4 3,3 36 19 58 31 SW 1006,5 15
13.03.2019 10:00:00 5,2 2,1 40 21 - - SW 1006,6 15
13.03.2019 09:00:00 5,0 2,2 36 19 58 31 SW 1006,6 15
13.03.2019 08:00:00 4,8 2,0 40 21 61 33 SW 1006,3 10
13.03.2019 07:00:00 5,1 1,5 36 19 - - SW 1006,3 20
13.03.2019 06:00:00 5,1 1,3 40 21 58 31 SW 1006,2 20
13.03.2019 05:00:00 4,8 1,4 36 19 58 31 SW 1006,2 20
13.03.2019 04:00:00 4,6 1,3 36 19 - - SW 1006,6 20
13.03.2019 03:00:00 4,6 1,6 36 19 58 31 SW 1006,8 20

tt = Température de l'air
td = dewpoint
ff = Vitesse du vent
fx = gusts
dd = Direction du vent
ppp = reduced air pressure
vv = visibility

stations d'obs. à proximité